Wind_Gust
14 14 14 14 15 14 14 14 15 14 14 14 14 14 13 14 15 13 14 16 15 14 15 17 16 17 18 18 19 21 21 30 28 26 25 30 6 12 9 6 9 12 12 18 19 22 24 24 24 21 23 21 23 25 19 22 16 20 24 23 22 23 20 13 16 22 20 17 16 14 11 12 19 19 18 20 17 16 18 17 18 17 19 25 23 28 28 27
14 14 14 14 14 15 15 15 15 15 14 13 13 14 15 13 14 15 14 15 16 16 15 15 16 17 17 18 19 19 24 27 29 29 35 15 16 12 11 7 13 16 14 21 21 24 23 25 24 23 25 24 18 25 19 25 20 24 22 24 23 21 14 9 15 18 15 17 10 14 10 13 15 16 26 25 20 20 19 20 19 20 23 25 24 26 26 24
14 14 14 14 14 13 14 14 15 15 15 15 15 14 14 14 14 15 14 15 16 15 15 16 16 16 18 17 18 16 25 27 29 32 26 14 19 17 11 10 18 16 23 21 21 22 23 22 22 24 24 24 23 23 20 23 24 23 22 23 27 14 15 13 12 10 15 12 12 10 13 11 17 14 24 22 23 22 22 24 20 22 23 23 23 24 24 22
13 13 13 14 13 14 15 15 16 16 15 15 15 14 15 15 15 15 15 15 15 15 15 17 17 16 18 18 16 26 24 26 29 31 21 13 12 11 12 11 18 21 24 24 18 23 20 19 21 24 24 26 22 23 24 23 25 21 27 25 21 20 16 16 15 11 9 9 10 10 11 14 16 10 23 16 21 24 21 20 20 23 23 26 26 24 23 23
13 13 13 14 14 15 16 17 17 17 16 15 15 15 14 15 15 15 15 15 15 15 15 17 17 16 18 18 16 24 23 21 20 26 18 9 8 10 12 12 16 25 24 21 20 21 21 21 22 24 26 27 22 22 22 21 23 19 25 23 21 15 17 12 14 11 8 8 11 9 14 13 12 17 17 24 21 21 22 18 17 23 19 25 25 25 23 22
13 13 13 13 14 15 16 16 16 16 16 15 14 14 15 15 15 15 15 14 15 15 15 16 17 16 18 16 26 22 20 22 21 22 13 11 10 11 17 16 17 24 23 24 23 21 22 23 24 28 30 25 23 25 22 23 23 27 20 22 23 14 17 13 13 13 11 14 11 13 13 11 15 18 13 11 19 20 18 19 21 25 19 23 23 24 22 20
13 13 13 14 15 16 16 16 15 15 17 17 15 15 15 15 15 16 16 14 14 14 15 16 16 17 15 17 29 23 26 39 10 22 14 11 9 15 19 20 18 25 25 26 25 27 25 25 26 25 25 26 25 27 21 23 22 25 24 22 23 18 20 11 15 15 16 13 13 12 10 13 13 20 13 13 13 15 17 18 24 22 21 23 25 21 20 20
13 13 14 15 15 16 17 17 17 15 15 16 16 13 15 15 15 15 15 15 15 15 15 16 16 16 15 24 21 24 28 33 28 24 13 12 17 19 20 22 25 25 27 29 27 28 25 29 29 26 29 27 21 25 20 22 24 27 31 17 17 20 20 16 15 15 14 13 14 11 14 13 16 17 23 18 15 15 17 20 24 19 19 22 22 21 19 18
13 14 14 15 16 17 17 17 17 16 15 16 15 15 14 14 15 14 15 15 15 13 15 16 16 15 15 21 22 25 31 28 29 16 15 13 11 19 21 22 24 26 29 31 28 26 26 29 29 29 26 27 22 22 23 23 29 27 24 21 16 17 18 17 17 17 16 18 14 12 15 12 11 13 19 19 14 15 17 22 20 22 22 22 20 20 17 17
14 14 15 16 17 17 17 17 16 16 15 16 15 16 15 14 13 15 15 14 14 14 14 15 15 14 20 21 21 25 16 13 11 14 10 11 15 16 22 18 24 25 29 29 28 29 30 29 28 26 27 24 23 24 20 24 20 26 26 24 21 18 18 17 20 20 19 19 16 19 15 18 15 24 23 14 16 17 18 23 21 22 21 22 21 20 17 17
15 15 16 16 18 17 17 17 16 16 16 15 15 15 16 15 13 14 16 15 13 13 13 15 14 15 22 20 26 27 12 16 12 12 8 10 14 20 21 20 21 26 27 28 31 30 28 28 24 25 29 30 19 23 24 26 22 11 19 23 23 21 19 17 21 21 21 22 20 18 17 20 20 23 21 22 18 17 19 21 23 21 20 22 22 19 17 16
15 16 16 17 17 17 17 16 16 16 16 15 14 14 15 15 15 14 14 14 14 12 13 13 14 21 21 23 29 30 13 11 11 12 10 12 15 19 19 19 20 23 26 29 30 29 28 28 23 29 27 21 31 18 27 19 24 19 15 23 24 23 27 21 24 21 21 25 24 20 18 21 22 24 24 21 19 18 20 19 19 20 20 21 20 20 18 17
15 17 17 17 17 17 16 16 15 16 15 15 14 14 15 15 14 14 14 14 12 12 12 13 15 19 21 27 33 35 36 22 15 12 16 15 13 13 16 15 19 22 24 26 28 28 27 28 26 26 27 20 21 27 13 24 22 21 19 23 24 28 29 26 24 25 25 22 24 23 29 25 30 23 19 19 18 17 21 19 20 19 21 20 19 19 19 16
16 17 17 18 17 16 16 16 15 15 15 16 16 15 14 13 14 14 13 15 15 14 13 13 20 21 23 36 28 27 26 30 28 27 25 21 18 18 17 17 20 22 22 25 24 26 26 27 21 24 25 23 26 20 14 26 24 29 21 24 27 29 31 29 34 28 30 22 23 25 28 30 29 22 20 16 17 19 21 21 19 20 21 19 19 19 18 15
17 18 18 16 16 17 16 16 15 15 15 15 15 14 13 14 15 16 16 15 14 12 12 11 19 22 24 30 30 38 27 26 24 24 27 27 23 20 19 16 20 22 23 23 24 23 26 20 21 27 31 23 29 16 27 24 27 27 29 31 27 27 26 32 32 32 34 28 25 28 32 27 27 25 23 20 19 18 20 21 18 18 18 19 18 18 18 16
18 18 18 16 16 17 15 15 15 15 15 16 15 14 16 17 16 16 15 15 13 11 20 19 20 22 24 32 21 14 26 33 33 31 28 26 26 24 20 18 17 20 20 21 22 23 19 19 28 26 26 25 29 24 26 29 29 31 30 23 30 28 27 35 35 30 32 31 27 33 26 31 22 23 22 22 21 19 18 19 20 18 19 19 18 17 18 17
18 18 17 16 16 16 16 15 15 16 16 16 13 17 19 18 19 18 16 13 17 20 20 22 18 20 24 16 13 22 27 31 25 28 29 29 26 25 22 20 23 23 23 20 21 20 22 25 22 28 29 30 28 28 29 30 29 32 31 28 26 29 29 33 33 31 33 28 34 39 27 17 18 19 22 21 20 20 20 20 20 19 19 19 19 19 18 17
18 18 16 16 16 15 16 15 15 16 16 14 14 19 28 19 17 13 12 17 21 18 19 22 21 19 38 42 30 28 29 25 27 28 27 29 26 25 22 28 22 24 26 26 23 28 29 31 29 29 28 31 33 34 35 33 31 29 30 27 30 31 25 27 40 36 35 28 30 33 22 22 19 17 20 20 20 21 20 20 19 20 18 19 20 19 18 17
17 17 16 15 15 15 15 15 15 15 14 12 20 26 26 26 25 21 19 24 25 19 18 29 31 28 15 19 38 17 20 21 24 22 27 30 29 26 23 23 24 30 32 32 30 29 32 28 27 31 37 37 37 36 33 24 25 26 27 29 25 32 30 31 33 33 32 30 30 34 32 22 23 19 19 19 21 17 20 20 19 20 21 20 18 18 19 17
16 16 15 15 16 15 14 13 14 15 12 15 23 24 23 22 20 22 26 26 32 30 23 24 39 32 28 16 19 25 12 15 22 25 23 28 32 28 27 28 28 31 32 35 32 35 30 35 37 38 34 33 29 32 30 27 23 24 27 29 23 30 27 22 30 34 34 31 28 34 22 22 21 20 20 19 16 17 17 19 20 21 22 22 21 17 17 17
16 15 15 15 16 16 14 13 12 13 6 19 20 22 22 18 21 19 27 28 30 30 33 27 32 31 34 15 12 13 25 24 22 24 27 28 29 29 35 33 34 35 36 30 31 31 30 36 37 33 30 29 30 29 29 31 19 24 27 29 27 29 27 22 29 35 36 29 30 31 26 22 21 20 20 19 18 17 16 17 18 21 22 19 19 16 17 19
16 15 14 15 16 16 14 13 12 7 8 20 20 26 25 19 20 14 19 26 30 37 35 35 29 30 30 31 16 9 15 25 28 27 28 32 34 39 32 34 36 37 31 33 30 36 37 42 36 31 31 27 29 29 29 29 22 21 28 29 27 31 27 23 23 28 33 33 32 33 29 22 20 19 18 19 18 18 15 15 14 16 19 18 18 16 15 15
16 15 16 14 15 15 14 13 7 5 22 23 24 23 27 24 17 16 19 29 35 28 34 34 34 33 35 30 30 15 21 26 33 29 38 33 34 38 34 38 35 33 36 35 36 35 37 36 32 29 30 29 30 29 30 26 24 25 29 30 29 29 34 32 27 29 28 36 28 27 26 23 19 18 18 18 20 20 19 18 18 16 19 17 17 16 16 15
16 15 15 15 15 14 14 10 13 20 25 24 25 26 21 14 16 16 21 25 26 24 34 37 34 36 37 37 29 26 24 27 25 31 30 41 38 33 36 35 33 37 38 38 33 35 33 25 30 29 31 30 31 32 32 27 28 25 27 28 29 30 32 24 29 31 27 26 24 29 26 24 22 22 22 19 21 22 22 21 19 17 16 15 16 17 13 14
17 15 14 14 16 14 11 14 21 25 21 21 24 20 20 19 16 13 19 28 34 44 29 32 33 33 34 29 25 34 27 27 26 25 36 35 37 39 33 39 36 37 31 35 32 33 30 26 30 32 34 32 32 35 36 28 30 29 25 25 23 27 26 28 28 31 33 32 28 34 32 31 26 23 23 24 25 23 22 22 21 19 19 18 18 18 16 18
16 14 13 13 14 13 14 20 18 14 13 20 17 16 14 14 11 11 16 21 24 23 34 37 34 39 38 35 28 28 22 37 27 27 35 35 30 38 35 39 40 36 32 34 36 35 28 26 31 34 35 34 33 32 31 29 30 27 33 26 28 26 29 31 32 31 34 36 33 30 31 29 28 26 23 24 23 22 22 21 20 20 19 20 21 20 21 20
14 14 13 13 12 13 19 15 22 16 19 18 15 10 9 11 9 9 18 23 26 31 37 25 37 37 44 30 34 28 36 36 29 26 32 35 38 35 32 34 35 31 35 32 36 39 31 31 33 34 36 37 33 36 35 34 30 30 23 28 27 28 28 27 32 30 28 23 28 31 36 27 32 29 24 23 25 23 23 22 20 21 20 22 19 19 18 20
14 11 11 12 11 10 19 27 21 16 17 14 11 15 11 11 11 13 17 14 23 27 33 34 27 30 33 34 33 40 24 25 39 36 24 32 34 37 38 34 36 34 36 35 36 23 26 31 34 35 32 38 37 30 28 33 37 26 26 26 20 27 30 28 31 32 28 28 33 36 34 29 27 26 24 28 27 26 25 24 22 23 23 21 20 21 21 21
15 12 10 11 10 14 22 23 19 22 18 11 9 12 10 10 12 16 19 17 20 26 24 29 22 23 25 33 39 33 37 33 34 31 27 28 38 30 40 34 34 33 31 35 33 27 35 28 30 29 33 36 28 30 28 33 36 25 28 27 23 21 29 28 32 33 28 29 29 34 36 34 27 25 30 29 27 28 28 25 22 21 19 18 20 19 19 18
15 14 14 11 15 22 24 23 23 19 23 17 13 13 11 12 16 16 21 21 15 20 25 23 30 30 28 39 37 36 40 31 28 39 36 41 36 32 32 26 36 34 35 32 31 28 27 23 27 34 36 30 28 28 29 31 33 24 29 30 29 25 28 31 31 32 29 25 30 30 33 33 28 29 31 34 32 30 27 24 22 21 19 19 18 17 17 18
14 15 14 11 22 18 16 18 22 25 21 15 11 13 15 16 24 24 16 19 14 13 13 25 31 29 35 35 39 37 38 31 33 40 40 37 38 34 32 36 31 36 34 30 35 30 24 27 31 36 26 28 24 32 28 29 34 25 32 34 29 26 22 26 30 30 35 33 27 31 35 35 25 28 32 24 23 26 26 25 26 22 19 18 15 17 18 18
14 14 14 19 23 20 20 18 18 15 9 9 10 17 17 20 24 25 23 17 21 11 18 23 29 37 34 32 30 44 46 35 33 45 42 44 39 43 42 37 42 44 40 37 38 32 31 33 28 27 27 30 34 31 33 33 36 29 30 33 32 35 32 35 35 36 36 33 27 30 33 37 28 23 27 25 24 23 21 23 24 22 22 19 18 18 17 17
13 14 17 22 20 23 25 26 13 10 9 10 17 18 21 23 27 30 29 16 14 15 16 20 22 32 32 33 38 41 36 35 35 35 35 41 38 36 33 37 34 40 42 38 34 36 32 27 32 29 28 35 32 39 40 40 40 34 37 37 36 38 35 30 34 29 32 30 28 34 31 32 20 29 25 27 26 24 24 23 21 20 20 19 18 17 17 17
12 15 24 21 24 25 23 19 19 16 15 12 20 20 21 23 25 15 23 18 13 18 19 17 28 30 32 46 36 39 44 31 34 43 37 41 41 39 42 38 36 37 33 36 43 39 31 36 39 35 38 34 40 36 33 32 36 38 30 36 32 31 41 31 38 37 34 29 24 25 38 31 28 23 25 29 27 25 23 22 21 21 20 19 19 18 17 17
14 21 25 25 25 28 26 23 19 16 16 17 23 28 27 34 28 17 18 16 15 10 18 17 21 27 35 37 33 41 37 41 36 35 40 41 42 42 42 42 40 35 31 36 36 36 33 32 32 34 21 36 37 34 32 30 31 35 33 29 35 34 26 31 20 27 30 27 22 25 23 16 25 26 25 26 26 26 22 21 19 19 19 19 19 18 18 18
18 25 22 28 27 24 27 26 20 19 20 19 26 30 33 30 19 18 14 12 11 11 16 18 24 28 36 38 34 38 39 31 37 39 40 40 37 41 35 39 49 39 37 39 32 36 38 38 33 34 26 34 31 31 37 33 39 37 37 41 36 27 29 23 8 11 7 20 27 21 24 22 23 19 22 24 25 23 21 20 19 19 18 18 19 18 17 17
23 19 23 22 25 20 23 25 24 23 22 26 25 30 33 31 22 12 18 12 9 12 18 19 34 29 36 41 40 40 42 31 39 42 41 38 45 38 42 35 33 39 33 32 33 28 31 31 34 38 33 34 31 30 31 34 29 35 40 33 27 33 28 30 29 17 21 29 25 27 25 25 28 24 25 24 24 22 21 21 19 18 18 18 19 18 17 17
20 19 21 22 18 21 19 22 24 25 24 23 29 22 22 29 16 12 16 13 13 11 18 21 22 20 32 36 40 41 37 33 36 41 34 40 43 36 35 43 37 38 32 30 27 32 29 28 37 33 32 35 33 32 34 31 34 33 34 22 44 39 37 33 30 27 32 33 26 26 27 28 29 25 31 28 27 25 22 21 20 19 18 19 19 19 17 16
20 18 18 19 23 20 21 24 26 26 25 29 32 30 30 28 17 15 10 11 8 13 21 13 19 21 21 33 31 38 40 39 37 39 38 41 39 41 39 32 36 34 33 29 30 26 27 26 31 32 36 35 34 37 39 36 35 33 28 34 31 30 33 33 37 24 34 28 23 25 31 30 33 31 34 34 31 30 27 23 20 19 18 18 18 17 16 16
19 14 17 11 15 23 23 25 25 26 29 32 29 32 17 22 25 15 13 14 12 16 15 15 18 18 24 23 30 36 37 30 37 38 31 35 33 34 39 32 35 38 32 29 26 23 26 19 28 36 32 33 40 43 39 39 39 42 40 41 40 35 25 26 31 34 34 33 26 26 30 25 19 32 34 32 31 30 28 25 22 22 20 19 17 17 16 15
17 16 11 12 18 22 26 26 27 31 32 30 25 23 21 25 17 16 9 8 16 13 20 19 20 19 15 22 26 31 35 34 37 38 31 31 34 41 34 35 32 37 36 33 28 30 27 28 22 36 43 41 34 37 32 34 36 34 33 37 38 34 35 34 30 33 35 37 32 28 29 22 19 19 28 31 28 29 26 24 24 21 20 19 18 16 15 15
13 15 14 15 20 26 30 28 31 26 31 29 27 28 25 17 23 14 14 12 15 21 14 22 21 22 20 20 22 31 34 32 35 32 28 32 30 26 31 33 31 32 42 39 31 28 27 29 26 33 41 37 30 33 33 30 32 31 34 37 37 34 32 35 31 30 29 31 27 27 23 15 19 20 25 28 27 28 26 25 26 23 21 19 18 17 15 15
17 13 9 17 22 29 28 24 23 28 29 26 20 24 26 26 19 18 18 11 17 16 19 21 20 19 16 20 20 27 32 35 35 35 28 29 29 25 35 33 30 33 34 40 28 32 10 31 31 33 29 28 31 33 31 27 31 34 36 32 32 37 34 31 30 23 28 20 27 24 22 20 17 18 27 24 23 26 26 25 27 25 21 20 18 16 16 16
15 9 12 14 23 26 25 27 27 26 27 23 23 20 18 20 20 20 15 13 16 13 19 20 17 19 18 17 18 25 27 20 29 27 30 27 29 16 33 32 34 41 34 30 31 30 32 26 27 30 35 35 25 27 33 26 30 38 36 35 32 33 31 27 24 19 26 25 19 19 22 16 17 14 25 25 26 26 26 24 25 27 22 19 18 17 17 16
16 10 11 18 21 23 27 26 21 21 24 22 21 21 20 19 12 12 12 13 13 16 16 23 22 20 23 19 23 20 34 23 35 24 18 19 25 17 27 29 31 30 29 27 16 29 24 22 30 33 35 36 38 41 43 37 36 34 31 36 35 34 33 33 31 24 23 24 26 24 19 21 18 17 22 27 27 26 24 24 23 23 22 20 18 18 17 16
14 12 14 17 22 24 29 24 19 19 21 22 15 20 20 21 15 10 10 17 17 19 22 24 24 23 24 22 23 24 27 29 25 31 32 20 24 27 24 29 28 32 22 13 15 28 25 17 17 20 28 30 29 27 24 27 31 38 31 35 37 34 34 32 28 26 26 20 28 23 33 29 23 22 25 23 27 27 25 24 25 24 21 19 17 17 16 16
10 12 17 21 21 25 23 24 23 20 18 13 20 20 19 17 8 10 10 14 13 25 26 25 25 25 21 21 23 21 22 33 27 22 23 25 17 24 24 24 31 19 13 20 16 25 19 19 16 17 15 17 24 28 30 31 31 33 30 28 28 27 30 33 28 26 17 16 21 24 36 36 29 27 25 25 23 24 24 23 23 23 22 20 19 18 14 17
14 9 17 12 19 20 24 23 26 20 17 17 16 8 12 12 12 14 13 22 19 21 24 17 26 30 26 22 23 22 25 27 30 19 23 22 21 14 30 27 30 14 18 30 23 21 24 15 15 16 16 12 12 16 22 31 30 26 25 26 27 23 19 19 19 16 13 19 17 25 29 36 31 25 24 22 23 23 23 21 21 22 23 21 20 19 18 17
12 17 17 13 10 14 22 17 21 18 18 17 17 13 12 15 19 21 13 11 22 24 27 18 24 24 26 26 26 24 25 28 20 22 25 22 19 26 29 30 24 23 26 26 27 23 18 14 16 19 23 16 15 17 20 26 26 25 25 22 17 21 22 19 11 10 13 15 26 26 27 30 27 26 24 22 21 24 24 21 22 22 22 21 20 19 18 18
12 12 9 13 18 16 14 12 14 18 18 17 14 15 19 17 18 14 17 25 19 19 21 24 25 20 22 25 27 28 26 18 24 18 17 24 25 25 26 26 30 29 29 27 28 15 16 16 16 24 26 22 17 17 20 24 24 29 19 17 15 19 22 21 21 25 29 24 27 33 34 27 20 23 26 22 22 22 23 22 22 22 21 20 19 18 17 18
13 14 15 19 19 18 16 17 16 18 16 18 20 13 16 17 15 14 18 17 21 19 19 22 21 21 20 23 24 17 18 17 26 21 27 30 29 28 27 30 30 30 30 29 26 22 15 16 19 24 23 20 18 19 22 25 28 28 25 20 16 17 21 20 19 12 17 27 27 27 26 22 22 24 24 23 22 22 22 22 21 20 19 19 19 18 18 18
13 15 14 15 15 10 16 17 16 16 17 17 16 15 17 13 13 15 13 11 10 13 14 13 17 23 25 21 22 12 13 18 26 26 33 34 23 28 28 26 32 32 30 26 25 31 26 25 19 21 24 21 22 21 28 31 31 25 14 16 16 19 21 25 25 21 21 24 23 14 17 26 28 26 27 23 23 22 21 20 21 20 18 18 18 18 18 17
Wind_Speed
11 11 11 11 11 11 11 11 12 11 10 11 11 11 10 10 11 10 10 12 12 11 12 13 12 13 14 15 15 17 17 15 16 13 14 17 1 9 8 4 7 9 8 9 10 11 13 13 14 12 10 9 9 10 8 10 5 7 8 8 9 9 8 2 4 8 9 6 6 6 3 4 9 9 7 10 8 8 9 6 5 7 10 14 12 14 14 16
11 10 10 10 10 11 11 11 11 12 11 10 11 11 11 10 11 12 11 11 12 13 12 12 13 12 14 14 15 15 16 15 17 18 20 4 13 10 8 5 9 11 10 11 11 13 13 14 13 13 11 9 8 10 9 8 8 8 7 9 9 9 4 1 4 7 5 7 2 6 2 6 6 8 11 12 10 10 10 10 10 11 12 13 12 15 15 15
10 10 10 10 10 10 10 11 11 11 11 11 12 11 11 11 11 12 11 11 12 12 12 12 13 13 14 14 15 14 15 15 17 19 14 11 16 14 9 8 12 12 13 11 12 12 13 12 12 13 11 10 9 9 9 8 10 10 8 9 11 6 3 5 4 1 7 1 4 1 5 4 8 6 12 11 13 12 12 11 11 11 12 10 13 12 14 13
10 10 10 10 10 11 11 12 13 13 12 11 12 11 11 12 12 12 12 12 11 12 12 13 13 13 14 15 13 15 13 14 13 15 10 11 10 9 9 9 13 14 15 14 10 12 11 10 12 12 10 12 9 11 10 8 9 8 10 9 8 9 6 5 6 1 1 1 2 2 4 6 8 2 11 8 11 13 11 11 11 14 12 13 13 13 13 14
10 10 10 10 10 11 12 12 13 13 13 12 10 11 11 11 11 11 11 11 12 12 12 13 14 13 15 15 14 12 12 8 1 14 10 6 5 7 8 9 12 15 14 12 11 12 12 11 11 12 12 10 10 11 10 10 10 7 12 12 11 5 7 4 6 5 1 1 3 1 7 2 4 6 9 9 10 8 8 9 9 14 12 12 14 14 13 13
10 10 10 10 11 11 12 12 12 12 13 12 11 11 11 12 12 12 12 11 11 12 11 13 13 13 14 13 14 11 7 5 7 10 11 8 8 8 12 12 13 15 13 14 12 12 13 13 13 12 11 11 12 11 10 12 12 10 9 12 13 6 8 5 5 6 5 6 4 5 3 2 7 9 6 2 6 4 7 11 13 13 10 11 11 14 12 12
10 10 10 10 11 12 12 13 12 11 11 13 12 11 12 11 11 12 12 11 10 10 11 12 13 13 13 14 15 12 11 13 1 12 11 9 7 12 13 14 13 14 15 14 14 12 14 14 15 13 12 12 14 11 11 13 12 11 9 12 13 10 11 3 7 8 8 4 5 3 3 5 5 9 4 4 4 6 7 10 15 12 12 13 14 12 12 11
10 10 11 11 12 13 13 13 13 11 11 12 12 11 9 11 12 11 12 12 11 11 11 12 13 13 13 12 9 10 13 14 17 13 10 10 11 12 13 12 15 14 16 17 15 16 14 17 16 13 13 12 9 12 10 13 14 13 14 9 8 12 11 8 7 6 7 6 4 4 6 6 7 5 13 9 7 7 8 12 14 8 10 12 12 12 11 10
9 10 11 12 13 14 14 13 13 12 11 12 12 12 11 10 11 11 11 11 11 11 10 12 12 12 12 10 9 10 13 14 17 8 4 6 3 12 11 10 14 15 15 17 17 16 15 15 17 15 11 14 12 12 13 11 11 13 14 11 7 8 10 9 8 9 8 7 6 5 8 4 3 5 10 10 7 7 10 13 11 9 13 11 11 12 10 9
10 11 12 12 13 13 13 13 13 12 12 12 12 12 12 11 9 10 12 11 10 11 11 12 12 11 12 9 9 11 7 7 2 6 3 4 8 9 12 9 13 14 15 17 16 17 17 13 17 15 16 13 12 12 11 14 7 14 15 14 11 9 9 9 11 11 10 9 8 10 7 8 7 12 8 6 8 9 9 13 9 13 12 12 12 10 9 9
12 12 12 13 14 14 13 14 13 12 12 12 12 11 12 12 10 9 10 12 10 10 10 11 11 11 10 9 11 11 3 8 3 2 0 4 7 11 12 11 12 13 15 16 18 18 17 17 14 10 12 10 8 12 13 10 13 2 9 14 14 12 10 9 12 12 11 10 8 9 9 11 11 12 7 11 10 9 11 12 14 12 11 11 13 10 9 8
12 13 13 13 14 14 13 13 12 12 12 12 11 11 11 12 12 11 10 10 10 9 9 9 11 7 10 11 12 12 5 4 1 4 3 4 7 10 11 11 11 13 14 16 18 18 17 17 14 14 9 7 12 9 12 11 14 10 8 10 14 13 11 12 12 11 10 11 14 11 9 10 11 13 11 12 10 10 12 10 10 11 10 11 11 10 8 8
12 13 13 13 13 13 13 12 12 12 11 12 11 11 11 11 11 11 10 10 9 9 9 10 10 7 10 12 15 18 21 11 6 4 8 6 5 4 7 7 10 12 14 15 16 17 16 15 15 15 14 9 10 7 3 14 12 11 9 10 12 13 14 15 13 14 15 10 14 12 10 11 14 11 11 11 9 9 12 9 10 9 10 9 10 9 9 8
13 13 14 14 13 13 12 12 12 12 12 12 12 12 12 10 10 11 10 10 11 11 10 9 9 8 10 15 10 14 16 15 18 17 13 10 9 9 9 9 10 11 12 15 15 14 15 14 13 13 11 12 9 8 5 10 12 12 10 11 10 12 12 17 16 17 18 10 14 14 11 12 16 13 11 8 9 10 11 11 10 10 10 9 9 9 8 8
13 14 14 13 13 13 12 12 12 12 12 12 12 11 10 11 11 11 12 12 11 9 9 8 8 9 10 10 16 25 23 15 14 14 14 15 13 11 10 8 11 13 12 13 11 11 13 12 10 12 12 12 16 6 11 10 11 11 11 12 11 11 11 18 19 20 17 13 13 15 13 11 16 14 14 11 10 10 11 12 8 9 9 10 8 9 8 7
14 14 15 13 13 13 12 11 11 12 12 12 12 11 13 14 13 12 11 11 10 7 9 9 8 10 10 12 5 5 13 18 19 18 15 15 15 13 11 10 9 11 11 10 9 9 9 8 12 11 12 13 15 8 11 11 11 13 13 11 13 12 10 16 21 17 20 14 16 20 9 13 10 13 13 13 12 11 9 10 11 10 10 9 8 8 8 8
14 14 13 13 13 13 12 12 11 12 13 13 10 13 15 15 15 14 12 10 8 9 8 7 8 8 9 2 4 11 12 16 15 15 17 16 15 14 12 11 11 12 12 11 10 7 10 11 9 11 14 12 12 11 12 13 12 12 13 10 13 15 13 13 20 18 21 16 16 23 10 6 8 10 12 12 11 11 11 10 11 9 9 9 7 9 9 8
13 14 13 12 12 12 12 12 12 12 13 12 11 16 16 16 14 11 8 10 8 6 7 8 8 7 14 20 14 15 15 13 14 14 16 15 15 15 13 12 12 14 15 13 12 14 13 12 12 12 12 14 15 15 14 14 13 12 13 12 12 16 13 14 17 18 22 18 18 20 12 12 10 9 11 12 11 12 11 10 10 11 10 9 10 9 9 8
13 13 13 11 12 12 11 11 12 12 11 8 16 21 21 20 11 9 6 8 9 7 6 9 11 10 3 6 24 9 9 11 14 13 15 18 16 14 12 12 13 17 15 15 12 17 13 11 11 13 16 16 17 18 15 12 14 14 15 13 12 14 13 13 17 19 20 15 16 20 13 10 13 9 9 11 12 9 11 11 9 10 11 10 9 8 9 8
12 12 12 11 12 12 11 11 11 12 10 10 9 9 8 7 7 7 11 12 14 15 12 13 19 17 17 8 9 14 5 5 10 14 13 16 15 16 15 14 15 16 16 15 16 18 13 15 16 17 16 18 18 19 18 16 13 14 14 16 11 14 13 11 17 20 20 16 15 20 13 12 11 11 10 9 5 7 8 10 10 10 11 11 11 8 8 10
12 11 11 11 11 13 11 11 10 9 5 9 10 8 7 7 9 5 11 13 17 19 20 16 19 18 17 4 5 6 9 12 11 13 15 15 17 16 16 16 17 16 17 17 15 14 14 16 18 20 19 17 18 17 18 19 11 14 14 16 10 15 12 12 17 21 20 14 14 18 13 12 11 11 11 10 9 9 8 9 10 12 12 9 11 8 9 10
12 12 11 10 12 12 11 11 10 5 5 9 9 10 11 8 9 2 7 8 17 23 22 21 18 16 16 19 8 1 6 10 16 16 14 19 18 18 17 17 19 17 16 17 14 15 16 19 19 19 18 16 18 18 18 18 11 10 12 14 12 12 10 10 10 17 17 16 13 19 15 11 11 10 9 9 8 6 5 6 6 7 9 8 8 8 8 7
12 12 12 11 11 12 11 10 6 3 9 8 10 12 12 12 8 6 8 11 15 15 19 20 20 20 19 15 15 7 11 14 15 16 17 18 20 20 18 18 18 17 18 20 17 16 16 16 20 18 18 18 17 17 18 16 12 10 12 13 12 13 15 13 13 18 16 14 10 15 14 10 9 9 9 10 10 9 8 7 7 6 10 8 8 7 7 7
13 12 11 12 12 11 11 9 11 13 11 13 13 13 11 5 6 7 9 8 10 13 17 20 20 20 20 18 12 14 13 11 12 19 17 19 18 19 16 21 20 18 18 22 20 17 16 13 18 18 19 19 18 18 20 13 12 13 15 13 13 16 16 11 12 15 14 14 12 14 11 8 9 10 9 9 11 12 10 10 9 8 7 7 8 7 5 7
13 12 10 11 12 11 10 12 11 12 11 11 12 11 10 9 6 5 7 9 11 16 17 18 14 16 17 15 13 14 14 12 15 12 17 20 20 18 16 16 14 18 18 22 20 17 17 15 18 20 19 19 18 18 20 14 12 13 15 14 13 17 15 14 16 17 13 13 13 20 11 10 13 12 11 11 11 12 11 12 11 10 10 9 9 10 8 9
12 11 9 10 10 10 12 9 8 3 3 8 6 6 4 5 3 2 6 5 9 8 15 16 13 15 13 18 14 13 12 15 15 12 17 18 17 17 12 14 13 18 20 21 17 11 12 16 19 20 20 21 20 17 18 16 13 12 13 16 15 13 16 18 18 15 14 14 13 15 13 9 12 13 12 12 12 12 11 11 11 10 10 10 11 11 11 11
11 10 9 9 9 11 9 3 9 7 8 5 6 2 2 4 3 2 4 7 10 6 15 9 16 8 13 17 17 14 14 14 13 15 18 18 20 17 16 15 15 13 15 12 10 13 14 19 18 21 22 21 17 16 18 19 13 11 13 17 17 15 18 16 18 15 11 12 14 17 14 9 10 11 12 13 14 13 13 11 11 10 11 12 10 10 10 11
11 9 7 8 8 8 8 10 10 6 7 5 3 7 1 3 3 3 4 3 5 11 12 12 9 10 14 18 20 17 12 13 16 16 14 18 20 19 17 20 18 19 20 15 16 10 16 16 21 22 19 16 16 16 17 20 15 9 14 16 11 14 15 15 15 14 12 13 14 16 20 10 8 11 14 16 15 15 13 13 13 14 13 12 11 11 12 12
11 10 8 9 8 11 10 10 9 10 7 2 0 3 1 3 3 3 5 7 3 4 5 12 6 10 12 19 21 18 18 15 15 16 14 16 22 13 16 19 18 20 20 19 14 12 12 15 16 16 15 15 15 17 16 20 16 14 15 14 11 12 18 16 14 15 13 12 12 17 18 11 10 11 13 15 14 15 14 14 13 13 11 11 11 11 11 10
11 10 10 9 9 11 10 10 11 10 11 7 4 5 4 3 5 5 6 8 4 6 10 7 12 14 16 19 17 21 23 14 13 17 17 15 22 19 14 15 19 17 18 19 17 14 14 15 17 13 16 15 16 16 17 19 21 14 17 15 14 7 10 14 13 12 10 9 12 16 20 16 9 11 12 15 13 15 13 11 11 12 11 11 10 10 9 9
10 10 10 9 8 6 6 7 10 13 11 6 3 5 5 5 7 6 8 4 3 4 2 10 14 16 19 21 16 20 23 16 18 20 18 18 20 19 15 16 13 15 15 14 16 17 13 10 13 13 15 12 14 16 16 17 21 14 12 15 13 11 9 12 12 13 12 12 14 18 19 22 9 12 12 11 12 15 14 15 15 13 12 10 9 9 9 9
10 9 10 9 10 8 8 6 8 5 1 2 2 6 6 6 7 6 6 6 8 2 8 8 15 15 20 19 16 20 18 19 17 20 19 18 19 18 19 15 15 17 18 16 16 17 15 16 14 15 14 19 16 16 15 16 20 14 13 15 14 11 9 11 12 14 13 12 12 16 20 17 12 10 12 12 12 10 11 12 13 13 13 11 10 10 9 8
8 9 12 11 12 11 12 13 5 1 2 2 6 6 7 6 10 12 10 6 1 2 4 6 6 18 18 20 19 22 21 18 20 19 21 20 18 18 19 18 19 16 16 18 17 16 13 16 19 16 16 16 16 17 16 16 19 17 16 16 15 14 13 11 14 8 11 13 13 16 18 12 9 14 15 15 12 12 14 12 11 11 11 11 10 9 9 8
8 10 10 10 11 11 11 10 8 8 6 5 6 6 6 9 9 9 12 5 3 4 7 5 15 12 20 17 19 20 19 18 20 16 21 19 20 18 19 23 22 19 15 17 15 16 13 15 17 20 14 18 19 17 16 14 16 17 15 16 14 12 11 11 11 13 14 11 12 16 16 9 13 7 13 18 16 15 13 13 12 12 12 12 11 11 10 10
10 12 13 12 12 14 14 12 10 9 8 7 7 8 11 13 10 6 5 4 3 0 7 6 8 13 19 19 19 23 18 14 19 20 20 19 18 17 19 19 23 20 15 14 13 10 20 12 15 20 12 21 20 20 16 17 15 15 15 13 15 13 10 11 6 11 11 9 7 8 2 6 6 11 14 13 15 15 14 12 12 11 10 11 10 10 9 9
11 10 9 10 12 13 13 11 11 11 9 7 8 10 13 11 5 5 2 2 3 3 4 8 10 9 15 16 19 23 25 12 21 17 18 21 20 18 20 16 20 23 16 13 12 13 16 14 18 19 15 20 18 17 18 17 14 15 16 17 16 14 13 8 2 3 1 6 6 4 7 8 7 9 12 14 14 14 13 12 11 11 11 10 10 9 9 9
8 8 9 11 12 10 11 13 11 11 9 9 9 11 12 10 11 0 6 3 1 3 4 7 8 9 14 14 15 24 21 17 19 17 15 20 18 21 21 19 20 22 20 14 13 11 12 12 20 20 20 18 18 18 18 20 13 12 15 15 14 15 14 9 7 5 6 10 8 12 11 10 12 5 10 14 14 12 13 12 11 11 10 10 10 10 9 9
8 7 10 11 9 11 10 11 13 11 9 9 11 16 8 12 7 3 5 2 4 3 5 6 6 10 9 15 17 22 22 15 17 18 15 20 11 21 20 17 23 21 20 18 9 13 13 11 17 21 17 18 19 17 17 18 20 15 15 11 14 13 15 13 7 11 12 12 7 10 15 9 12 9 14 16 16 15 13 13 12 11 10 11 11 11 10 9
8 7 6 10 12 9 10 13 12 11 10 9 12 12 10 12 7 8 1 2 0 3 7 4 3 7 7 13 14 21 21 14 18 18 15 15 13 20 20 15 19 22 21 19 13 10 11 9 11 18 20 20 17 16 16 17 20 19 15 15 15 12 15 12 9 8 10 11 10 10 17 9 14 12 20 20 19 17 16 14 12 11 10 9 9 9 8 8
7 4 6 4 5 11 12 13 11 10 10 13 12 11 6 9 10 8 5 6 3 5 5 4 7 7 8 10 16 16 18 17 17 16 15 14 12 20 20 18 15 20 21 18 12 11 8 8 10 15 20 15 15 14 18 18 17 17 17 16 13 10 10 10 11 12 12 11 9 8 10 7 2 14 20 20 19 19 17 15 12 12 11 11 10 9 8 8
7 5 1 6 8 11 13 11 10 12 12 11 13 11 11 10 7 8 2 1 6 5 6 8 8 5 4 8 7 17 12 15 15 14 13 14 15 13 17 17 16 20 19 19 15 11 6 10 8 13 17 18 16 18 19 19 19 17 14 15 16 16 15 15 12 12 12 12 10 9 9 6 2 5 11 17 16 16 16 14 12 12 12 11 9 9 8 8
4 4 3 8 12 15 14 11 9 9 9 12 10 10 9 9 11 7 6 5 7 7 4 7 11 10 9 9 6 11 13 12 14 14 12 12 16 11 16 22 19 20 16 13 13 14 9 9 10 13 16 17 17 20 20 19 19 17 14 15 18 14 13 12 11 12 12 11 12 11 6 3 6 2 9 15 15 17 16 14 14 13 12 11 10 9 9 8
5 4 3 8 13 17 12 9 9 9 12 10 10 13 14 12 9 7 9 4 7 7 7 8 8 7 7 6 9 12 15 10 17 15 15 16 14 13 18 22 19 21 18 14 15 13 3 7 12 14 15 15 18 19 20 18 19 18 18 17 15 16 17 14 12 10 9 8 11 8 6 5 4 2 14 14 14 15 14 14 16 13 11 11 10 9 9 8
5 2 4 6 13 13 10 9 11 11 11 12 13 10 10 8 9 10 6 6 5 5 8 7 8 8 8 8 7 4 12 5 16 7 8 15 10 8 22 22 23 16 16 12 11 14 8 8 11 12 9 12 9 14 15 12 13 14 14 16 17 17 18 15 12 8 7 12 9 6 7 4 3 3 13 15 16 16 16 14 14 15 12 11 10 9 8 9
5 2 3 6 9 10 10 9 8 8 11 11 9 10 10 8 5 5 5 6 6 7 7 9 9 8 7 9 11 4 14 10 7 9 7 10 8 7 18 19 21 16 15 16 12 13 9 9 9 12 15 16 13 15 17 16 16 13 16 19 19 19 21 16 13 9 7 10 13 7 6 9 9 9 14 17 17 16 15 14 13 13 13 11 10 9 9 8
3 2 3 5 7 7 10 11 8 8 8 11 8 9 11 9 6 3 4 8 9 10 9 11 13 12 11 12 10 10 12 12 10 7 8 5 6 6 12 19 16 18 15 7 9 12 7 7 5 4 11 12 13 13 12 15 13 15 17 21 23 22 19 17 12 9 9 9 12 9 17 16 15 13 15 14 16 17 16 14 14 13 12 11 10 9 8 8
2 4 5 7 6 10 9 9 9 9 6 5 6 8 10 9 1 2 3 4 5 10 10 12 11 10 8 10 11 9 10 15 8 12 12 8 8 10 12 14 18 8 11 10 10 10 7 5 4 4 5 8 14 17 18 19 17 18 19 18 17 17 19 20 13 9 9 6 7 11 22 20 15 16 16 15 15 15 14 14 14 13 12 11 10 10 10 9
5 1 4 4 5 6 10 10 13 10 9 9 6 2 5 6 4 4 4 9 10 10 8 7 13 16 15 9 9 5 10 16 16 7 13 13 10 5 12 15 16 4 11 13 13 8 9 4 5 6 4 4 3 8 14 18 18 16 13 14 17 14 12 10 11 3 5 6 3 14 18 22 17 15 14 13 14 14 14 13 13 13 13 12 12 11 10 10
4 5 5 5 1 6 10 8 12 9 9 9 6 4 6 6 10 10 5 3 8 10 15 8 11 14 15 14 12 6 8 10 7 10 10 7 9 10 10 17 11 9 13 13 11 8 3 4 8 8 8 4 4 9 11 16 16 15 15 15 12 12 10 10 4 3 1 7 16 13 15 18 15 15 14 12 12 14 14 12 12 13 13 13 12 11 10 10
3 4 1 5 7 6 4 3 5 9 8 8 5 7 7 9 10 7 7 10 7 10 12 14 13 11 13 15 11 9 14 6 10 7 9 12 8 6 9 11 13 15 14 13 12 6 5 2 7 13 10 7 5 7 5 8 9 11 9 8 3 9 12 7 10 14 19 13 17 22 21 15 9 14 16 13 12 12 13 13 13 13 13 12 11 11 10 10
5 5 6 7 7 6 6 7 7 8 6 7 7 6 8 9 9 4 9 10 13 10 9 13 12 10 11 13 15 7 6 8 15 11 5 9 9 12 10 12 15 15 16 12 7 4 5 6 8 9 8 7 7 10 12 11 12 13 11 7 5 10 11 10 5 3 9 14 17 17 14 10 11 14 15 14 13 14 14 13 12 11 12 11 11 11 10 10
5 6 6 5 5 4 4 8 7 6 6 7 4 5 4 6 7 8 5 4 5 6 6 6 9 5 8 6 6 5 3 9 15 14 10 12 11 13 12 13 17 14 12 9 12 10 7 7 4 7 10 7 11 12 16 18 14 11 7 6 6 7 10 12 13 11 11 15 12 6 6 12 16 15 16 14 14 14 13 12 12 12 11 11 11 11 10 9
Wind_Direction
337 336 336 333 335 332 333 331 325 326 323 323 321 314 311 315 315 318 312 309 311 315 315 314 317 316 313 314 320 313 318 300 299 290 261 248 108 102 94 114 174 163 197 211 215 189 194 199 203 201 208 207 210 232 190 206 231 218 216 237 227 239 224 169 230 193 46 102 94 137 154 251 157 179 159 187 175 116 144 144 103 96 87 116 86 111 136 136
335 334 333 333 330 331 329 327 330 327 324 316 317 317 312 312 315 311 312 310 312 312 313 315 315 318 313 316 314 318 310 297 287 278 263 255 155 160 150 158 171 180 201 222 209 193 196 195 200 191 207 213 185 229 171 200 214 211 222 225 239 214 250 256 218 44 192 85 44 103 170 287 100 189 149 194 152 157 151 154 145 102 99 90 114 125 134 140
329 329 328 329 328 327 324 324 319 320 320 316 311 311 308 307 307 307 304 310 315 315 313 313 314 315 317 315 314 313 299 297 278 262 277 181 169 162 161 163 176 185 202 212 209 202 208 195 198 195 207 227 176 219 164 197 197 217 239 217 235 242 216 208 28 88 23 108 103 269 141 262 130 287 143 215 166 181 178 164 162 141 122 127 135 148 132 141
328 326 325 326 327 326 325 320 317 312 313 310 310 305 307 309 307 305 309 305 307 316 316 311 312 316 314 311 317 309 294 287 273 247 82 71 120 162 169 162 188 191 217 243 222 220 220 219 201 206 208 235 178 232 168 191 205 187 233 239 221 225 243 197 219 255 124 339 34 338 165 191 167 225 189 191 170 197 173 168 185 145 148 148 142 143 144 146
322 323 321 321 324 322 323 325 319 316 310 308 308 309 304 300 305 307 306 308 309 308 315 312 311 313 311 311 309 294 291 282 12 83 91 112 156 164 168 180 191 201 218 233 237 230 227 224 204 209 230 213 223 200 213 194 211 222 221 238 254 54 278 81 189 151 107 96 272 187 229 91 125 184 211 185 190 189 172 168 138 109 127 146 150 153 151 148
319 315 315 314 314 321 319 318 319 321 319 308 305 302 301 304 304 305 305 302 308 313 311 313 311 308 310 315 300 280 266 231 82 106 105 122 150 179 178 178 195 216 216 230 229 219 222 220 210 210 214 230 217 214 195 232 178 241 213 241 253 279 247 153 192 141 204 199 238 232 64 182 227 172 238 177 22 84 97 111 107 107 142 140 160 148 148 142
318 314 311 311 315 315 314 312 313 314 316 307 303 302 304 299 303 303 304 304 304 313 318 312 311 311 314 304 277 264 242 269 88 140 136 152 149 164 181 184 185 211 219 222 218 217 210 218 212 210 219 223 234 216 212 212 195 233 237 200 230 240 238 96 213 145 205 222 214 292 173 231 189 174 184 152 91 85 88 109 102 133 149 171 151 140 138 139
317 312 312 315 313 311 310 309 309 308 309 309 299 299 305 304 298 298 305 306 306 308 318 314 313 309 321 301 280 224 230 245 256 148 152 160 177 167 175 187 186 199 211 217 209 213 207 218 208 214 225 222 215 219 215 214 205 216 240 236 214 215 228 223 218 206 209 227 245 214 214 198 218 156 192 121 134 125 123 103 113 127 141 146 137 135 137 138
314 308 310 308 309 308 307 308 305 306 306 305 308 301 296 292 298 302 301 306 306 305 307 307 307 312 303 283 282 267 235 233 255 212 194 198 213 159 178 188 190 194 206 213 215 214 213 213 218 216 218 224 230 225 216 220 206 218 231 234 221 221 217 217 219 219 209 211 210 216 205 186 173 149 191 129 121 122 129 104 111 164 160 149 137 136 139 134
308 310 305 308 305 306 304 302 304 302 303 300 300 306 303 293 296 306 309 297 306 307 308 309 302 309 288 269 253 251 248 245 231 262 252 259 242 204 201 216 183 201 208 209 213 217 214 214 220 210 244 244 234 230 222 211 243 191 218 235 234 215 214 200 217 201 205 215 193 215 197 166 161 209 125 149 136 143 141 116 155 180 150 139 134 138 134 142
308 305 306 305 307 302 300 299 301 302 298 297 297 301 306 300 293 301 308 301 296 301 302 302 305 289 271 256 246 236 83 258 221 188 326 233 229 217 210 221 190 210 210 208 216 214 214 226 211 229 227 243 245 239 226 201 235 69 233 216 229 233 216 195 210 203 200 206 203 211 204 150 181 216 179 152 153 159 132 150 174 164 155 134 136 139 130 131
307 303 305 305 305 304 302 304 303 302 301 303 301 301 300 298 296 293 301 296 294 295 293 294 298 278 272 265 242 231 79 256 245 244 188 220 222 223 224 219 206 217 210 211 212 213 219 221 222 223 230 188 248 250 221 224 222 219 225 230 214 220 219 209 202 206 198 198 195 195 208 180 176 216 129 136 151 163 142 159 171 157 140 143 133 126 132 122
305 302 303 307 305 305 306 304 302 301 302 300 302 298 301 300 298 300 294 291 286 294 297 293 284 270 271 260 243 248 266 279 266 261 266 268 241 225 229 229 235 223 221 221 210 214 217 223 225 228 232 221 223 213 249 204 215 233 213 241 205 211 217 200 212 200 198 199 185 192 205 188 189 158 129 136 153 160 151 167 166 151 132 134 135 129 119 118
303 299 301 306 310 304 305 305 304 303 302 304 304 307 299 299 293 287 289 290 297 297 291 287 277 265 256 255 276 248 243 249 260 265 258 241 244 213 201 218 225 229 225 229 221 212 217 221 233 251 237 230 228 157 271 187 207 217 208 221 235 202 210 193 198 198 196 180 187 186 220 180 184 138 146 165 151 183 159 170 166 153 151 145 135 128 128 131
303 301 301 308 307 302 301 304 305 305 308 306 305 305 308 287 284 286 281 272 262 284 284 272 257 256 239 262 249 248 253 267 255 240 233 228 220 223 214 201 213 217 215 224 231 214 215 215 216 230 228 223 252 198 216 205 196 212 209 210 224 231 195 186 191 192 200 167 187 200 235 196 155 155 159 168 179 183 173 157 161 141 148 142 135 133 132 126
302 301 305 306 301 299 299 302 303 307 302 303 303 308 294 283 270 267 268 270 283 299 264 249 226 231 278 286 266 99 210 220 230 231 230 228 218 224 214 205 201 206 205 210 227 215 206 194 215 216 227 211 231 226 210 211 200 205 220 202 212 218 202 177 184 182 202 166 187 210 211 117 151 148 159 170 173 195 158 161 158 149 145 139 141 135 129 127
305 300 301 299 298 298 300 300 303 302 306 304 311 287 274 269 268 264 259 257 247 223 235 242 218 206 250 271 272 226 211 211 227 216 219 219 221 220 213 185 191 190 194 190 210 192 182 208 199 226 229 222 210 218 208 205 200 204 206 219 209 209 203 179 170 185 199 180 186 211 218 108 121 162 157 165 166 186 163 164 162 157 151 158 144 142 137 136
307 306 304 303 299 299 300 303 305 306 303 310 296 287 283 279 281 284 234 217 223 214 230 244 283 249 246 249 261 230 214 216 202 214 203 200 212 210 206 185 186 185 182 182 197 195 180 202 196 217 204 219 201 214 215 200 201 197 191 216 197 217 200 168 175 175 201 188 192 205 202 149 152 149 166 164 160 192 161 159 174 162 165 161 165 150 144 142
310 310 306 302 298 296 302 306 303 307 309 314 288 273 268 267 266 234 195 180 179 180 211 193 196 195 358 187 216 249 203 203 188 201 191 192 191 207 194 193 187 179 183 187 175 198 174 202 196 216 208 206 205 208 214 213 199 201 196 206 206 201 180 198 176 181 194 184 196 200 173 144 146 152 147 159 176 183 159 162 169 166 158 181 158 144 148 132
309 309 308 304 301 297 301 301 303 304 316 294 290 279 228 229 203 210 201 190 213 205 228 188 194 215 266 255 190 204 83 113 190 198 192 184 179 192 194 188 186 191 187 194 168 202 166 201 198 206 209 203 207 209 214 226 201 205 194 211 206 200 197 183 173 178 184 186 199 196 168 141 135 137 136 128 113 142 165 161 173 168 170 172 162 146 128 120
305 308 309 305 300 299 299 308 311 310 323 289 287 276 246 228 230 228 185 211 220 237 250 258 191 229 244 291 90 231 210 191 225 193 200 170 186 185 186 188 184 194 197 194 179 188 186 208 209 207 211 205 206 209 215 227 235 209 194 209 196 212 190 188 180 167 185 196 187 190 148 151 130 133 133 138 160 154 169 175 175 170 172 166 139 136 120 104
305 304 306 304 300 299 302 299 300 306 256 276 270 258 271 299 355 347 301 255 228 224 240 248 253 240 249 265 266 40 278 225 194 203 186 179 181 197 172 194 187 195 186 195 178 186 200 210 208 204 210 206 208 207 211 224 225 229 203 199 200 201 186 128 140 168 177 201 190 181 139 148 137 129 133 142 131 126 127 151 162 165 135 125 124 101 111 110
305 303 300 301 297 301 308 302 310 286 288 267 252 244 254 276 313 313 293 279 282 256 228 232 233 242 246 243 240 221 234 224 191 192 175 188 177 206 172 194 188 197 186 197 190 189 202 211 209 201 207 211 205 205 210 214 216 213 206 199 208 182 196 158 168 185 179 207 184 146 160 138 128 129 133 143 143 137 129 113 96 133 142 124 101 96 99 97
304 300 298 299 301 301 301 308 277 266 250 246 251 257 271 289 286 295 285 266 287 252 223 218 225 227 229 226 210 221 223 218 225 185 170 192 188 196 192 196 188 200 192 198 198 198 206 200 202 203 206 211 202 199 209 201 204 215 214 204 209 188 192 157 156 188 180 213 175 167 159 156 164 156 154 140 129 125 120 110 107 96 101 98 107 88 80 91
306 299 294 296 299 308 305 296 280 251 242 238 245 252 245 264 304 336 295 277 238 246 238 224 209 222 224 225 218 212 210 238 232 202 171 197 187 189 201 191 202 201 197 196 200 206 207 201 191 205 201 205 205 198 207 193 204 207 224 225 208 205 154 167 164 184 181 197 200 187 179 190 182 179 167 151 151 138 131 124 118 118 113 125 122 110 105 82
301 302 305 297 301 311 302 282 256 249 254 254 262 206 200 198 246 330 287 265 264 244 173 217 168 211 204 201 199 207 206 227 221 227 169 198 198 199 179 200 209 195 201 192 201 212 204 196 191 199 198 202 206 206 195 195 209 204 201 230 221 197 175 182 172 181 186 192 193 191 191 181 177 185 166 168 160 146 133 120 121 123 119 105 91 92 100 92
299 291 302 301 301 308 273 204 17 286 252 212 172 21 130 88 291 324 270 226 257 193 178 165 171 148 188 181 182 177 206 204 194 228 179 189 203 199 204 195 192 221 196 191 201 203 212 188 189 199 200 201 202 203 191 198 213 211 178 212 223 189 200 176 179 190 192 197 182 193 205 181 177 185 170 171 162 157 136 129 124 116 108 92 82 79 81 86
298 289 291 292 292 282 276 301 305 273 281 77 324 63 234 253 309 244 245 288 259 142 186 144 211 131 208 161 184 192 219 154 186 197 207 176 214 190 225 194 194 207 190 197 204 181 202 190 196 194 193 195 199 200 187 199 216 202 171 201 232 230 171 183 196 195 203 184 186 194 207 213 177 164 172 168 168 163 146 139 117 99 92 97 96 87 80 75
296 292 276 283 288 272 272 266 273 261 269 22 100 272 218 290 309 261 234 250 117 219 82 168 112 169 206 168 187 201 213 181 193 163 193 182 210 212 210 206 193 211 195 196 209 184 187 217 183 185 187 199 203 199 198 194 213 218 166 188 218 233 179 186 200 198 205 198 201 195 200 210 179 165 179 180 176 165 148 127 117 109 100 96 91 87 83 81
291 292 290 283 278 250 237 236 243 255 262 266 215 211 238 266 238 220 220 237 69 211 192 135 186 176 187 173 188 195 214 190 197 155 183 193 191 225 217 216 199 204 203 193 216 203 185 214 169 200 200 205 201 199 201 192 216 224 167 186 198 189 188 192 211 209 201 215 210 192 199 214 172 180 191 184 181 163 140 131 128 114 106 96 92 91 86 81
289 285 283 284 260 269 286 256 232 210 217 232 254 264 256 236 228 220 226 220 92 328 106 154 189 176 184 181 181 192 213 200 186 161 177 184 188 210 201 203 208 206 205 189 209 212 168 179 194 199 212 209 202 195 196 193 214 213 183 189 186 196 211 213 210 209 215 202 206 206 202 209 202 182 185 173 169 156 162 152 144 130 112 106 96 87 83 76
287 286 278 271 267 279 254 236 46 27 31 99 179 224 212 232 223 233 211 103 242 294 268 190 187 183 185 188 188 184 199 199 176 174 178 183 183 194 195 196 184 191 195 188 198 205 183 196 196 199 202 208 188 206 180 195 210 189 194 195 189 182 186 194 204 207 216 216 192 208 194 202 209 170 171 130 128 140 149 151 140 129 117 110 96 87 81 78
283 276 268 260 259 238 239 261 293 198 116 207 245 223 214 233 228 217 240 188 228 314 140 320 236 185 187 189 191 180 200 203 169 178 180 181 190 192 199 205 189 204 186 188 193 192 189 190 188 195 187 207 199 203 176 192 207 184 195 196 191 188 183 198 197 203 212 213 202 214 183 211 136 128 131 121 108 112 108 117 120 119 111 104 102 96 91 84
284 274 263 250 244 246 241 237 233 218 208 239 234 211 239 242 242 245 236 226 69 214 300 284 320 238 190 195 183 182 190 206 170 177 184 179 191 185 196 204 193 193 211 180 201 184 184 185 193 187 191 187 207 214 182 196 190 193 203 201 202 196 186 194 193 198 205 193 212 199 193 151 140 118 102 109 110 106 102 104 105 105 108 107 104 103 97 91
273 275 266 262 253 240 233 229 223 214 218 224 226 220 214 228 245 229 212 95 147 62 262 274 265 233 189 203 185 184 201 179 187 181 186 183 190 192 192 193 191 202 196 189 194 189 193 201 175 195 183 183 209 196 192 195 188 197 211 211 209 208 171 201 195 218 195 188 190 203 129 21 116 119 115 121 121 113 110 114 119 115 113 112 106 100 97 89
281 264 247 244 235 224 213 211 204 195 207 209 216 217 224 228 215 265 1 292 55 253 264 279 268 248 194 196 190 182 198 201 185 196 185 191 187 194 190 191 193 196 194 199 179 193 187 201 177 187 189 186 212 193 194 193 199 184 208 208 208 208 189 195 188 8 186 184 200 135 92 101 109 125 139 135 125 126 126 125 125 120 117 110 102 99 93 88
270 277 256 238 230 224 194 189 189 190 206 218 218 225 227 235 255 225 187 234 206 293 237 266 224 215 189 190 190 185 181 193 185 194 188 187 187 199 187 195 195 194 210 204 179 203 187 188 168 175 188 181 200 204 204 188 219 177 214 204 206 215 219 192 210 161 212 197 191 182 148 155 166 162 161 151 136 141 146 138 132 127 123 112 109 104 99 92
281 271 272 262 236 192 192 173 173 183 201 215 228 239 244 240 205 217 139 170 181 196 273 239 235 204 209 186 187 182 173 190 181 197 193 188 194 186 191 195 188 197 200 201 213 188 214 186 170 180 189 176 184 201 220 196 212 210 203 194 210 183 211 190 214 187 199 202 180 197 170 174 198 154 167 164 153 144 147 142 140 130 122 115 108 102 96 90
273 272 266 220 213 163 168 162 178 182 197 214 229 232 246 264 316 283 125 30 207 313 262 255 285 228 226 198 192 184 169 187 179 195 195 181 196 183 196 191 185 193 194 198 209 188 209 191 174 173 198 171 176 195 205 194 199 227 197 211 224 216 212 196 206 204 207 200 200 196 202 199 209 159 176 165 157 153 149 147 142 132 125 115 108 101 94 88
264 236 228 75 169 153 152 166 181 199 211 221 222 229 253 258 253 244 208 217 209 238 228 288 218 266 259 272 214 181 170 185 185 192 206 166 198 169 194 190 186 190 191 190 194 198 199 189 181 174 188 165 192 193 205 192 189 206 204 198 205 227 208 224 194 213 201 212 196 194 197 189 104 162 169 164 159 151 157 142 137 129 119 111 108 104 95 89
248 259 172 178 174 150 151 177 191 200 212 230 240 245 233 249 240 221 168 333 273 237 281 280 296 297 272 262 268 185 172 188 186 196 192 169 196 166 199 180 189 190 185 183 201 181 205 160 188 173 189 190 194 188 204 196 198 208 210 205 195 201 194 206 200 206 208 207 194 191 195 107 40 343 145 156 150 149 147 130 130 122 117 112 106 102 103 99
264 235 165 166 165 160 167 182 208 207 225 224 220 220 241 243 255 240 190 201 249 269 210 265 250 269 267 263 287 212 185 186 181 188 186 187 187 189 178 190 184 185 183 181 195 169 211 165 187 189 193 187 193 180 206 204 201 195 201 219 215 201 207 207 207 196 218 216 214 191 170 107 37 41 175 146 152 136 137 141 130 125 116 112 110 105 98 91
223 255 67 200 171 178 189 209 200 209 223 229 232 236 229 224 250 228 237 224 265 233 266 256 254 260 262 253 253 219 166 194 186 187 181 189 176 193 168 193 184 182 189 180 197 165 216 198 187 196 192 177 191 183 203 210 193 198 208 224 206 207 206 211 217 195 211 214 228 185 159 128 35 55 138 138 145 134 136 137 133 123 120 117 112 105 103 96
254 199 181 189 194 197 214 209 196 210 216 218 226 238 243 244 225 229 231 264 259 260 259 267 270 231 263 244 257 248 222 189 173 137 184 175 162 203 175 185 178 186 192 170 199 154 193 202 200 181 182 182 187 183 180 207 223 201 200 211 213 206 209 222 230 207 218 219 229 212 168 169 110 132 135 136 137 135 132 132 131 124 118 112 109 108 106 102
306 317 87 166 186 204 220 222 226 210 220 228 228 231 230 227 250 287 286 256 253 268 273 257 259 285 265 262 282 243 201 215 156 159 221 172 138 249 175 181 182 180 189 173 211 147 213 175 192 190 188 178 179 192 186 186 205 203 199 195 219 214 204 201 219 191 223 214 201 208 115 116 116 120 121 132 131 126 125 125 120 117 119 118 117 110 108 103
256 224 113 164 196 213 245 260 296 292 247 218 216 238 241 234 179 214 268 264 269 264 260 273 286 286 271 271 259 251 172 191 203 150 206 84 142 222 180 182 189 182 170 72 190 165 208 186 194 257 215 187 191 184 182 187 192 207 194 200 202 210 201 207 216 203 196 215 217 187 139 138 138 133 130 131 134 130 128 128 124 121 117 115 119 118 112 106
304 253 152 175 180 221 232 229 238 241 248 245 228 215 226 234 324 5 193 262 243 246 253 256 259 257 257 245 242 242 151 164 193 182 144 158 182 170 188 192 187 115 105 163 203 184 192 182 204 110 327 213 191 192 185 191 190 201 205 196 195 210 205 200 210 209 211 225 213 112 139 139 151 146 139 135 132 130 130 130 123 122 122 124 123 118 115 113
245 196 231 195 223 183 206 220 222 223 238 238 227 191 247 204 187 227 239 229 259 245 243 238 239 243 254 253 221 225 227 165 180 172 173 180 160 168 182 194 184 110 198 175 197 195 181 182 128 146 150 60 178 174 185 188 198 194 190 198 203 200 225 206 193 98 13 244 171 144 144 140 147 147 140 135 137 131 132 128 125 125 124 123 124 120 116 109
271 295 287 269 230 259 208 211 209 219 228 227 230 202 223 213 222 217 209 258 240 249 232 230 236 238 231 228 225 244 220 150 173 168 188 146 153 168 175 176 171 162 189 180 180 185 156 137 180 145 113 104 171 178 197 203 191 183 186 195 200 203 194 207 199 201 219 101 122 141 124 122 136 136 135 127 125 125 121 120 122 125 125 125 123 121 117 112
313 322 331 309 247 279 239 232 211 198 223 211 238 217 230 221 235 222 227 234 250 244 217 233 243 251 227 213 202 196 230 163 130 155 173 164 129 190 177 183 161 186 191 183 185 149 140 195 183 159 155 137 152 161 149 118 142 152 141 120 182 206 192 138 87 107 106 110 107 116 116 108 105 124 121 117 118 119 118 123 125 122 124 124 122 123 120 113
311 298 303 308 289 229 203 212 210 203 212 188 219 223 219 222 242 221 248 252 229 236 209 224 237 253 242 216 209 199 306 153 147 166 157 153 159 197 197 170 172 176 186 172 156 170 213 155 175 165 128 144 164 160 156 135 109 107 95 93 139 143 130 124 133 92 129 131 126 119 120 128 130 124 120 120 121 121 121 122 122 120 123 125 124 121 117 107
276 266 262 278 277 301 267 190 209 196 208 197 196 282 239 243 228 204 244 225 267 231 232 234 258 276 218 91 63 51 259 152 163 150 163 199 194 185 211 178 176 177 176 165 164 173 167 171 189 166 162 163 151 153 136 126 115 101 104 79 37 72 100 94 75 69 106 131 138 171 125 140 141 136 127 128 125 122 120 121 119 121 120 121 120 119 115 106